| time (UTC) | temp F | wind direction | speed knots | gust knots | rain 1hr in | rain 24hr in | rain mn in | humidity % | barometer mb |
| 20260506193400 | 58 | 239 | 4.3 | 7.0 | 0.02 | 0.12 | 0.12 | 95 | 1005.5 |
| 20260506192900 | 58 | 257 | 3.5 | 5.2 | 0.02 | 0.12 | 0.12 | 95 | 1005.6 |
| 20260506192400 | 58 | 252 | 4.3 | 6.1 | 0.02 | 0.12 | 0.12 | 95 | 1005.6 |
| 20260506191900 | 58 | 244 | 2.6 | 6.1 | 0.02 | 0.12 | 0.12 | 95 | 1005.7 |
| 20260506190900 | 58 | 240 | 1.7 | 7.0 | 0.02 | 0.11 | 0.11 | 95 | 1005.7 |
| 20260506190400 | 59 | 237 | 2.6 | 7.0 | 0.01 | 0.10 | 0.10 | 95 | 1005.8 |
| 20260506185900 | 59 | 236 | 5.2 | 10.4 | 0.01 | 0.10 | 0.10 | 95 | 1005.8 |
| 20260506185400 | 59 | 225 | 2.6 | 7.0 | 0.02 | 0.10 | 0.10 | 94 | 1005.9 |
| 20260506184900 | 59 | 236 | 5.2 | 7.8 | 0.02 | 0.10 | 0.10 | 95 | 1005.9 |
| 20260506184359 | 59 | 258 | 2.6 | 7.0 | 0.02 | 0.10 | 0.10 | 95 | 1006.0 |
| 20260506183900 | 59 | 244 | 2.6 | 5.2 | 0.02 | 0.10 | 0.10 | 95 | 1006.0 |
| 20260506182900 | 59 | 229 | 4.3 | 7.0 | 0.03 | 0.10 | 0.10 | 94 | 1006.1 |
| 20260506182400 | 59 | 236 | 4.3 | 7.8 | 0.04 | 0.10 | 0.10 | 94 | 1006.2 |
| 20260506181900 | 59 | 239 | 2.6 | 7.0 | 0.05 | 0.10 | 0.10 | 94 | 1006.1 |
| 20260506181400 | 59 | 180 | 2.6 | 7.0 | 0.04 | 0.09 | 0.09 | 94 | 1006.1 |
| 20260506180359 | 59 | 264 | 2.6 | 6.1 | 0.06 | 0.09 | 0.09 | 93 | 1006.0 |
| 20260506175900 | 60 | 236 | 2.6 | 7.0 | 0.07 | 0.09 | 0.09 | 93 | 1006.1 |
| 20260506175400 | 60 | 250 | 1.7 | 5.2 | 0.07 | 0.08 | 0.08 | 93 | 1006.2 |
| 20260506174900 | 60 | 258 | 2.6 | 7.8 | 0.08 | 0.08 | 0.08 | 92 | 1006.2 |
| 20260506174400 | 60 | 250 | 3.5 | 7.0 | 0.08 | 0.08 | 0.08 | 92 | 1006.1 |
| 20260506173900 | 60 | 251 | 1.7 | 4.3 | 0.08 | 0.08 | 0.08 | 92 | 1006.0 |
| 20260506172400 | 61 | 266 | 0.9 | 4.3 | 0.06 | 0.06 | 0.06 | 91 | 1006.5 |
| 20260506171900 | 61 | 150 | 1.7 | 4.3 | 0.05 | 0.05 | 0.05 | 90 | 1006.8 |
| 20260506171359 | 61 | 193 | 1.7 | 6.1 | 0.05 | 0.05 | 0.05 | 89 | 1006.6 |
| 20260506170900 | 62 | 214 | 1.7 | 4.3 | 0.03 | 0.03 | 0.03 | 88 | 1007.0 |
| 20260506170400 | 62 | 245 | 0.9 | 4.3 | 0.03 | 0.03 | 0.03 | 86 | 1007.1 |
| 20260506165900 | 62 | 240 | 2.6 | 4.3 | 0.02 | 0.02 | 0.02 | 86 | 1007.3 |
| 20260506165400 | 63 | 236 | 3.5 | 7.0 | 0.01 | 0.01 | 0.01 | 83 | 1007.5 |
| 20260506164400 | 64 | 255 | 4.3 | 6.1 | 0.00 | 0.00 | 0.00 | 81 | 1007.4 |
| 20260506163359 | 64 | 247 | 4.3 | 6.1 | 0.00 | 0.00 | 0.00 | 80 | 1007.4 |
| 20260506162900 | 64 | 242 | 4.3 | 7.8 | 0.00 | 0.00 | 0.00 | 79 | 1007.3 |
| 20260506162400 | 64 | 230 | 1.7 | 4.3 | 0.00 | 0.00 | 0.00 | 79 | 1007.3 |
| 20260506161859 | 65 | 256 | 2.6 | 5.2 | 0.00 | 0.00 | 0.00 | 78 | 1007.4 |
| 20260506160900 | 65 | 239 | 5.2 | 8.7 | 0.00 | 0.00 | 0.00 | 74 | 1007.2 |
| 20260506160400 | 66 | 243 | 2.6 | 7.0 | 0.00 | 0.00 | 0.00 | 73 | 1007.4 |
| 20260506155900 | 66 | 208 | 4.3 | 7.0 | 0.00 | 0.00 | 0.00 | 73 | 1007.5 |
| 20260506155400 | 66 | 232 | 4.3 | 7.0 | 0.00 | 0.00 | 0.00 | 73 | 1007.5 |
| 20260506154900 | 66 | 232 | 2.6 | 6.1 | 0.00 | 0.00 | 0.00 | 72 | 1007.6 |
| 20260506154400 | 66 | 240 | 4.3 | 7.0 | 0.00 | 0.00 | 0.00 | 74 | 1007.8 |
| 20260506153900 | 65 | 273 | 4.3 | 7.0 | 0.00 | 0.00 | 0.00 | 75 | 1007.9 |
| 20260506152900 | 65 | 235 | 3.5 | 6.1 | 0.00 | 0.00 | 0.00 | 75 | 1008.0 |
| 20260506152400 | 65 | 242 | 5.2 | 11.3 | 0.00 | 0.00 | 0.00 | 74 | 1007.9 |
| 20260506151900 | 65 | 260 | 5.2 | 7.8 | 0.00 | 0.00 | 0.00 | 74 | 1007.9 |
| 20260506151359 | 65 | 241 | 4.3 | 7.0 | 0.00 | 0.00 | 0.00 | 75 | 1008.0 |
| 20260506150400 | 65 | 218 | 5.2 | 7.0 | 0.00 | 0.00 | 0.00 | 74 | 1008.0 |
| 20260506145901 | 65 | 216 | 3.5 | 8.7 | 0.00 | 0.00 | 0.00 | 74 | 1008.0 |
| 20260506143900 | 64 | 240 | 4.3 | 7.8 | 0.00 | 0.00 | 0.00 | 76 | 1008.2 |
| 20260506143400 | 64 | 259 | 4.3 | 5.2 | 0.00 | 0.00 | 0.00 | 77 | 1008.2 |
| 20260506142900 | 64 | 242 | 5.2 | 10.4 | 0.00 | 0.00 | 0.00 | 77 | 1008.3 |
| 20260506142359 | 63 | 234 | 5.2 | 7.8 | 0.00 | 0.00 | 0.00 | 78 | 1008.4 |
| 20260506141400 | 63 | 235 | 4.3 | 8.7 | 0.00 | 0.00 | 0.00 | 78 | 1008.3 |
| 20260506140859 | 63 | 247 | 3.5 | 7.8 | 0.00 | 0.00 | 0.00 | 79 | 1008.3 |
| 20260506140359 | 63 | 226 | 4.3 | 8.7 | 0.00 | 0.00 | 0.00 | 79 | 1008.2 |
| 20260506135900 | 62 | 259 | 4.3 | 8.7 | 0.00 | 0.00 | 0.00 | 82 | 1008.2 |
| 20260506135400 | 62 | 246 | 3.5 | 7.0 | 0.00 | 0.00 | 0.00 | 82 | 1008.2 |
| 20260506134900 | 62 | 248 | 4.3 | 7.0 | 0.00 | 0.00 | 0.00 | 81 | 1008.2 |
| 20260506133900 | 61 | 244 | 2.6 | 6.1 | 0.00 | 0.00 | 0.00 | 83 | 1008.2 |
| 20260506133400 | 61 | 220 | 2.6 | 6.1 | 0.00 | 0.00 | 0.00 | 83 | 1008.1 |
| 20260506132900 | 61 | 266 | 3.5 | 6.1 | 0.00 | 0.00 | 0.00 | 84 | 1008.2 |
| 20260506131900 | 61 | 236 | 2.6 | 5.2 | 0.00 | 0.00 | 0.00 | 84 | 1008.1 |
| 20260506131401 | 60 | 250 | 2.6 | 6.1 | 0.00 | 0.00 | 0.00 | 84 | 1008.2 |
| 20260506130900 | 60 | 269 | 3.5 | 5.2 | 0.00 | 0.00 | 0.00 | 85 | 1008.3 |
| 20260506125900 | 60 | 257 | 5.2 | 8.7 | 0.00 | 0.00 | 0.00 | 85 | 1008.4 |
| 20260506125400 | 60 | 274 | 4.3 | 7.0 | 0.00 | 0.00 | 0.00 | 85 | 1008.3 |
| 20260506124900 | 60 | 244 | 4.3 | 7.0 | 0.00 | 0.00 | 0.00 | 86 | 1008.3 |
| 20260506123900 | 59 | 224 | 1.7 | 7.8 | 0.00 | 0.00 | 0.00 | 86 | 1008.3 |
| 20260506123400 | 59 | 261 | 4.3 | 8.7 | 0.00 | 0.00 | 0.00 | 86 | 1008.6 |
| 20260506122901 | 59 | 253 | 4.3 | 7.0 | 0.00 | 0.00 | 0.00 | 87 | 1008.6 |
| 20260506122359 | 59 | 228 | 4.3 | 7.0 | 0.00 | 0.00 | 0.00 | 87 | 1008.7 |
| 20260506121900 | 59 | 253 | 3.5 | 7.0 | 0.00 | 0.00 | 0.00 | 87 | 1008.6 |
| 20260506121400 | 59 | 250 | 5.2 | 7.0 | 0.00 | 0.00 | 0.00 | 88 | 1008.7 |
| 20260506120900 | 59 | 255 | 5.2 | 7.8 | 0.00 | 0.00 | 0.00 | 88 | 1008.6 |
| 20260506120400 | 59 | 249 | 2.6 | 7.0 | 0.00 | 0.00 | 0.00 | 88 | 1008.5 |
| 20260506115900 | 58 | 242 | 2.6 | 7.0 | 0.00 | 0.00 | 0.00 | 89 | 1008.5 |
| 20260506115400 | 58 | 247 | 3.5 | 7.8 | 0.00 | 0.00 | 0.00 | 89 | 1008.4 |
| 20260506114900 | 58 | 240 | 5.2 | 7.8 | 0.00 | 0.00 | 0.00 | 89 | 1008.5 |
| 20260506114403 | 58 | 228 | 4.3 | 7.8 | 0.00 | 0.00 | 0.00 | 89 | 1008.6 |
| 20260506113900 | 58 | 239 | 3.5 | 7.8 | 0.00 | 0.00 | 0.00 | 90 | 1008.5 |
| 20260506113400 | 58 | 241 | 4.3 | 7.0 | 0.00 | 0.00 | 0.00 | 90 | 1008.5 |
| 20260506112900 | 58 | 260 | 4.3 | 8.7 | 0.00 | 0.00 | 0.00 | 90 | 1008.7 |
| 20260506112400 | 57 | 280 | 4.3 | 7.0 | 0.00 | 0.00 | 0.00 | 91 | 1008.7 |
| 20260506111901 | 57 | 267 | 2.6 | 10.4 | 0.00 | 0.00 | 0.00 | 91 | 1008.6 |
| 20260506110400 | 56 | 262 | 2.6 | 5.2 | 0.00 | 0.00 | 0.00 | 92 | 1008.5 |
| 20260506105900 | 56 | 257 | 1.7 | 7.0 | 0.00 | 0.00 | 0.00 | 93 | 1008.6 |
| 20260506104900 | 56 | 240 | 2.6 | 4.3 | 0.00 | 0.00 | 0.00 | 94 | 1008.8 |
| 20260506104401 | 55 | 243 | 2.6 | 5.2 | 0.00 | 0.00 | 0.00 | 94 | 1008.7 |
| 20260506103900 | 55 | 232 | 3.5 | 5.2 | 0.00 | 0.00 | 0.00 | 94 | 1008.6 |
| 20260506103401 | 55 | 247 | 2.6 | 5.2 | 0.00 | 0.00 | 0.00 | 94 | 1008.6 |
| 20260506101900 | 55 | 245 | 2.6 | 5.2 | 0.00 | 0.00 | 0.00 | 93 | 1008.6 |
| 20260506101400 | 55 | 255 | 2.6 | 5.2 | 0.00 | 0.00 | 0.00 | 94 | 1008.5 |
| 20260506100900 | 55 | 233 | 2.6 | 5.2 | 0.00 | 0.00 | 0.00 | 93 | 1008.3 |
| 20260506100401 | 55 | 262 | 2.6 | 5.2 | 0.00 | 0.00 | 0.00 | 93 | 1008.3 |
| 20260506095900 | 55 | 256 | 2.6 | 5.2 | 0.00 | 0.00 | 0.00 | 93 | 1008.4 |
| 20260506095400 | 55 | 253 | 2.6 | 6.1 | 0.00 | 0.00 | 0.00 | 92 | 1008.4 |
| 20260506094859 | 55 | 261 | 1.7 | 7.0 | 0.00 | 0.00 | 0.00 | 92 | 1008.3 |
| 20260506094401 | 55 | 260 | 3.5 | 5.2 | 0.00 | 0.00 | 0.00 | 92 | 1008.3 |
| 20260506093400 | 55 | 235 | 1.7 | 6.1 | 0.00 | 0.00 | 0.00 | 91 | 1008.2 |
| 20260506092400 | 55 | 232 | 1.7 | 4.3 | 0.00 | 0.00 | 0.00 | 90 | 1008.2 |
| 20260506091401 | 55 | 243 | 3.5 | 7.8 | 0.00 | 0.00 | 0.00 | 90 | 1008.2 |
| 20260506090900 | 56 | 252 | 3.5 | 7.8 | 0.00 | 0.00 | 0.00 | 90 | 1008.2 |
| 20260506090401 | 56 | 228 | 3.5 | 7.0 | 0.00 | 0.00 | 0.00 | 90 | 1008.3 |
| 20260506085900 | 56 | 254 | 2.6 | 8.7 | 0.00 | 0.00 | 0.00 | 89 | 1008.2 |
| 20260506085400 | 56 | 247 | 4.3 | 7.0 | 0.00 | 0.00 | 0.00 | 89 | 1008.3 |
| 20260506084900 | 56 | 247 | 4.3 | 7.0 | 0.00 | 0.00 | 0.00 | 88 | 1008.3 |
| 20260506083900 | 56 | 248 | 4.3 | 7.8 | 0.00 | 0.00 | 0.00 | 88 | 1008.2 |
| 20260506083401 | 56 | 259 | 3.5 | 6.1 | 0.00 | 0.00 | 0.00 | 88 | 1008.2 |
| 20260506082900 | 56 | 239 | 3.5 | 7.8 | 0.00 | 0.00 | 0.00 | 88 | 1008.3 |
| 20260506082400 | 56 | 240 | 4.3 | 7.8 | 0.00 | 0.00 | 0.00 | 87 | 1008.3 |
| 20260506081900 | 56 | 253 | 4.3 | 7.8 | 0.00 | 0.00 | 0.00 | 87 | 1008.3 |
| 20260506081400 | 56 | 247 | 2.6 | 5.2 | 0.00 | 0.00 | 0.00 | 87 | 1008.3 |
| 20260506080900 | 56 | 239 | 2.6 | 5.2 | 0.00 | 0.00 | 0.00 | 87 | 1008.3 |
| 20260506080400 | 57 | 248 | 2.6 | 4.3 | 0.00 | 0.00 | 0.00 | 87 | 1008.3 |
| 20260506073400 | 57 | 218 | 3.5 | 5.2 | 0.00 | 0.00 | 0.00 | 85 | 1008.4 |
| 20260506072900 | 57 | 203 | 2.6 | 4.3 | 0.00 | 0.00 | 0.00 | 84 | 1008.3 |
| 20260506072400 | 57 | 228 | 2.6 | 5.2 | 0.00 | 0.00 | 0.00 | 84 | 1008.4 |
| 20260506071901 | 57 | 247 | 2.6 | 6.1 | 0.00 | 0.00 | 0.00 | 84 | 1008.4 |
| 20260506070901 | 57 | 253 | 3.5 | 5.2 | 0.00 | 0.00 | 0.00 | 83 | 1008.4 |
| 20260506070400 | 57 | 254 | 2.6 | 6.1 | 0.00 | 0.00 | 0.00 | 83 | 1008.3 |
| 20260506061900 | 59 | 261 | 4.3 | 5.2 | 0.00 | 0.00 | 0.00 | 78 | 1008.3 |
| 20260506061401 | 59 | 251 | 4.3 | 7.0 | 0.00 | 0.00 | 0.00 | 78 | 1008.3 |
| 20260506060900 | 59 | 241 | 4.3 | 6.1 | 0.00 | 0.00 | 0.00 | 78 | 1008.2 |
| 20260506051401 | 60 | 246 | 5.2 | 10.4 | 0.00 | 0.00 | 0.00 | 74 | 1008.5 |
| 20260506050900 | 60 | 248 | 5.2 | 7.8 | 0.00 | 0.00 | 0.00 | 74 | 1008.5 |
| 20260506050401 | 60 | 232 | 5.2 | 7.8 | 0.00 | 0.00 | 0.00 | 74 | 1008.6 |
| 20260506044400 | 61 | 254 | 5.2 | 7.8 | 0.00 | 0.00 | 0.00 | 73 | 1008.5 |
| 20260506043901 | 61 | 244 | 5.2 | 7.8 | 0.00 | 0.00 | 0.00 | 73 | 1008.6 |
| 20260506042901 | 61 | 245 | 4.3 | 7.8 | 0.00 | 0.00 | 0.00 | 72 | 1008.6 |
| 20260506041401 | 61 | 257 | 5.2 | 7.8 | 0.00 | 0.00 | 0.00 | 72 | 1008.6 |
| 20260506040901 | 61 | 249 | 5.2 | 7.0 | 0.00 | 0.00 | 0.00 | 72 | 1008.6 |
| 20260506034901 | 61 | 262 | 4.3 | 8.7 | 0.00 | 0.00 | 0.00 | 71 | 1008.6 |
| 20260506034403 | 61 | 258 | 5.2 | 7.8 | 0.00 | 0.00 | 0.00 | 71 | 1008.5 |
| 20260506033901 | 61 | 258 | 5.2 | 7.8 | 0.00 | 0.00 | 0.00 | 71 | 1008.6 |
| 20260506033400 | 61 | 262 | 5.2 | 7.8 | 0.00 | 0.00 | 0.00 | 71 | 1008.6 |
| 20260506032400 | 61 | 248 | 4.3 | 6.1 | 0.00 | 0.00 | 0.00 | 70 | 1008.6 |
| 20260506031901 | 62 | 253 | 5.2 | 8.7 | 0.00 | 0.00 | 0.00 | 70 | 1008.6 |
| 20260506031401 | 62 | 245 | 5.2 | 8.7 | 0.00 | 0.00 | 0.00 | 70 | 1008.5 |
| 20260506030900 | 62 | 251 | 5.2 | 7.0 | 0.00 | 0.00 | 0.00 | 70 | 1008.5 |
| 20260506030400 | 62 | 246 | 5.2 | 7.8 | 0.00 | 0.00 | 0.00 | 69 | 1008.5 |
| 20260506025901 | 62 | 247 | 5.2 | 11.3 | 0.00 | 0.00 | 0.00 | 69 | 1008.4 |
| 20260506025401 | 62 | 249 | 5.2 | 7.8 | 0.00 | 0.00 | 0.00 | 69 | 1008.4 |
| 20260506024901 | 62 | 242 | 4.3 | 7.8 | 0.00 | 0.00 | 0.00 | 69 | 1008.4 |
| 20260506023900 | 62 | 250 | 4.3 | 7.0 | 0.00 | 0.00 | 0.00 | 68 | 1008.4 |
| 20260506023400 | 62 | 251 | 4.3 | 7.0 | 0.00 | 0.00 | 0.00 | 68 | 1008.4 |
| 20260506022901 | 62 | 232 | 3.5 | 6.1 | 0.00 | 0.00 | 0.00 | 68 | 1008.4 |
| 20260506022401 | 62 | 247 | 4.3 | 7.0 | 0.00 | 0.00 | 0.00 | 69 | 1008.3 |
| 20260506021900 | 62 | 265 | 4.3 | 7.0 | 0.00 | 0.00 | 0.00 | 69 | 1008.3 |
| 20260506021400 | 62 | 245 | 2.6 | 5.2 | 0.00 | 0.00 | 0.00 | 69 | 1008.3 |
| 20260506020900 | 62 | 238 | 2.6 | 7.0 | 0.00 | 0.00 | 0.00 | 70 | 1008.3 |
| 20260506020401 | 62 | 245 | 2.6 | 7.0 | 0.00 | 0.00 | 0.00 | 70 | 1008.2 |
| 20260506015901 | 62 | 237 | 3.5 | 7.8 | 0.00 | 0.00 | 0.00 | 69 | 1008.3 |
| 20260506014900 | 62 | 243 | 2.6 | 4.3 | 0.00 | 0.00 | 0.00 | 69 | 1008.3 |
| 20260506014400 | 62 | 214 | 0.9 | 4.3 | 0.00 | 0.00 | 0.00 | 69 | 1008.3 |
| 20260506013400 | 62 | 244 | 2.6 | 4.3 | 0.00 | 0.00 | 0.00 | 69 | 1008.3 |
| 20260506012901 | 62 | 235 | 2.6 | 4.3 | 0.00 | 0.00 | 0.00 | 68 | 1008.2 |
| 20260506012401 | 63 | 243 | 2.6 | 5.2 | 0.00 | 0.00 | 0.00 | 68 | 1008.2 |
| 20260506011900 | 63 | 239 | 2.6 | 4.3 | 0.00 | 0.00 | 0.00 | 67 | 1008.1 |
| 20260506011400 | 63 | 247 | 2.6 | 5.2 | 0.00 | 0.00 | 0.00 | 66 | 1008.1 |
| 20260506010901 | 63 | 247 | 2.6 | 5.2 | 0.00 | 0.00 | 0.00 | 66 | 1008.1 |
| 20260506010401 | 64 | 247 | 3.5 | 7.8 | 0.00 | 0.00 | 0.00 | 65 | 1008.0 |
| 20260506005401 | 64 | 236 | 4.3 | 7.8 | 0.00 | 0.00 | 0.00 | 64 | 1007.9 |
| 20260506004902 | 64 | 245 | 4.3 | 7.8 | 0.00 | 0.00 | 0.00 | 65 | 1007.8 |
| 20260506004401 | 64 | 247 | 3.5 | 6.1 | 0.00 | 0.00 | 0.00 | 66 | 1007.8 |
| 20260506003900 | 64 | 252 | 2.6 | 5.2 | 0.00 | 0.00 | 0.00 | 65 | 1007.6 |
| 20260506003401 | 64 | 259 | 2.6 | 5.2 | 0.00 | 0.00 | 0.00 | 64 | 1007.5 |
| 20260506002900 | 64 | 229 | 3.5 | 5.2 | 0.00 | 0.00 | 0.00 | 64 | 1007.4 |
| 20260506002400 | 64 | 225 | 2.6 | 6.1 | 0.00 | 0.00 | 0.00 | 63 | 1007.3 |
| 20260506001901 | 65 | 223 | 1.7 | 7.0 | 0.00 | 0.00 | 0.00 | 63 | 1007.3 |
| 20260506001401 | 65 | 243 | 3.5 | 7.8 | 0.00 | 0.00 | 0.00 | 62 | 1007.2 |
| 20260506000901 | 65 | 224 | 3.5 | 7.8 | 0.00 | 0.00 | 0.00 | 62 | 1007.1 |
| 20260506000401 | 65 | 245 | 2.6 | 5.2 | 0.00 | 0.00 | 0.00 | 61 | 1007.0 |
| 20260505235901 | 66 | 237 | 3.5 | 6.1 | 0.00 | 0.00 | 0.00 | 60 | 1006.9 |
| 20260505235401 | 66 | 233 | 4.3 | 7.0 | 0.00 | 0.00 | 0.00 | 60 | 1006.7 |
| 20260505234901 | 66 | 247 | 4.3 | 7.8 | 0.00 | 0.00 | 0.00 | 60 | 1006.7 |
| 20260505234401 | 66 | 234 | 3.5 | 6.1 | 0.00 | 0.00 | 0.00 | 59 | 1006.7 |
| 20260505233901 | 67 | 261 | 4.3 | 7.0 | 0.00 | 0.00 | 0.00 | 58 | 1006.6 |
| 20260505233401 | 67 | 236 | 3.5 | 6.1 | 0.00 | 0.00 | 0.00 | 58 | 1006.7 |
| 20260505232900 | 67 | 239 | 4.3 | 7.8 | 0.00 | 0.00 | 0.00 | 58 | 1006.6 |
| 20260505232401 | 67 | 223 | 3.5 | 7.8 | 0.00 | 0.00 | 0.00 | 58 | 1006.5 |
| 20260505231901 | 68 | 218 | 2.6 | 6.1 | 0.00 | 0.00 | 0.00 | 57 | 1006.4 |
| 20260505231400 | 68 | 229 | 4.3 | 10.4 | 0.00 | 0.00 | 0.00 | 58 | 1006.3 |
| 20260505230401 | 69 | 235 | 2.6 | 5.2 | 0.00 | 0.00 | 0.00 | 56 | 1006.3 |
| 20260505225901 | 69 | 248 | 2.6 | 5.2 | 0.00 | 0.00 | 0.00 | 55 | 1006.2 |
| 20260505225400 | 70 | 252 | 2.6 | 4.3 | 0.00 | 0.00 | 0.00 | 54 | 1006.2 |
| 20260505224901 | 70 | 202 | 2.6 | 6.1 | 0.00 | 0.00 | 0.00 | 53 | 1006.1 |
| 20260505224400 | 71 | 226 | 3.5 | 7.8 | 0.00 | 0.00 | 0.00 | 52 | 1006.0 |
| 20260505223901 | 71 | 238 | 4.3 | 7.0 | 0.00 | 0.00 | 0.00 | 51 | 1005.9 |
| 20260505223401 | 71 | 253 | 4.3 | 7.0 | 0.00 | 0.00 | 0.00 | 51 | 1005.9 |
| 20260505222901 | 72 | 230 | 4.3 | 10.4 | 0.00 | 0.00 | 0.00 | 51 | 1005.8 |
| 20260505221901 | 72 | 250 | 2.6 | 6.1 | 0.00 | 0.00 | 0.00 | 51 | 1005.8 |
| 20260505221400 | 72 | 250 | 3.5 | 7.8 | 0.00 | 0.00 | 0.00 | 50 | 1005.9 |
| 20260505220901 | 73 | 237 | 5.2 | 10.4 | 0.00 | 0.00 | 0.00 | 49 | 1005.7 |
| 20260505220401 | 73 | 249 | 2.6 | 7.0 | 0.00 | 0.00 | 0.00 | 49 | 1005.6 |
| 20260505215901 | 73 | 249 | 4.3 | 8.7 | 0.00 | 0.00 | 0.00 | 48 | 1005.5 |
| 20260505215400 | 74 | 247 | 5.2 | 10.4 | 0.00 | 0.00 | 0.00 | 48 | 1005.6 |
| 20260505214900 | 74 | 255 | 4.3 | 7.0 | 0.00 | 0.00 | 0.00 | 48 | 1005.7 |
| 20260505214401 | 74 | 235 | 6.1 | 7.8 | 0.00 | 0.00 | 0.00 | 47 | 1005.8 |
| 20260505213901 | 74 | 253 | 5.2 | 7.0 | 0.00 | 0.00 | 0.00 | 48 | 1005.9 |
| 20260505212900 | 74 | 229 | 4.3 | 7.0 | 0.00 | 0.00 | 0.00 | 46 | 1005.9 |
| 20260505212400 | 74 | 249 | 4.3 | 11.3 | 0.00 | 0.00 | 0.00 | 46 | 1005.8 |
| 20260505211901 | 74 | 243 | 7.0 | 13.0 | 0.00 | 0.00 | 0.00 | 46 | 1005.8 |
| 20260505211400 | 74 | 229 | 4.3 | 10.4 | 0.00 | 0.00 | 0.00 | 46 | 1005.8 |
| 20260505210901 | 74 | 250 | 4.3 | 11.3 | 0.00 | 0.00 | 0.00 | 46 | 1005.8 |
| 20260505210401 | 74 | 243 | 4.3 | 12.2 | 0.00 | 0.00 | 0.00 | 47 | 1005.8 |
| 20260505205901 | 74 | 240 | 6.1 | 13.0 | 0.00 | 0.00 | 0.00 | 47 | 1005.8 |
| 20260505205400 | 74 | 254 | 6.1 | 10.4 | 0.00 | 0.00 | 0.00 | 46 | 1005.9 |
| 20260505204901 | 75 | 247 | 5.2 | 13.9 | 0.00 | 0.00 | 0.00 | 46 | 1005.8 |
| 20260505204401 | 75 | 250 | 6.1 | 10.4 | 0.00 | 0.00 | 0.00 | 45 | 1005.8 |
| 20260505203901 | 75 | 246 | 5.2 | 13.9 | 0.00 | 0.00 | 0.00 | 45 | 1005.8 |
| 20260505203401 | 76 | 240 | 5.2 | 13.9 | 0.00 | 0.00 | 0.00 | 46 | 1005.7 |
| 20260505201901 | 76 | 225 | 6.1 | 14.8 | 0.00 | 0.00 | 0.00 | 43 | 1005.7 |
| 20260505201401 | 76 | 248 | 6.1 | 13.9 | 0.00 | 0.00 | 0.00 | 44 | 1005.8 |
| 20260505200901 | 77 | 227 | 6.1 | 10.4 | 0.00 | 0.00 | 0.00 | 42 | 1005.8 |
| 20260505200401 | 76 | 240 | 5.2 | 8.7 | 0.00 | 0.00 | 0.00 | 44 | 1005.8 |
| 20260505195901 | 76 | 233 | 5.2 | 10.4 | 0.00 | 0.00 | 0.00 | 45 | 1005.8 |
| 20260505195401 | 77 | 233 | 6.1 | 13.9 | 0.00 | 0.00 | 0.00 | 43 | 1005.9 |
| 20260505194902 | 76 | 252 | 5.2 | 13.9 | 0.00 | 0.00 | 0.00 | 43 | 1005.9 |
| 20260505194401 | 76 | 253 | 5.2 | 14.8 | 0.00 | 0.00 | 0.00 | 43 | 1005.8 |
| 20260505193904 | 76 | 221 | 6.1 | 12.2 | 0.00 | 0.00 | 0.00 | 44 | 1005.9 |